| time (UTC) | temp F | wind direction | speed knots | gust knots | rain 1hr in | rain 24hr in | rain mn in | humidity % | barometer mb |
| 20260506084835 | 76 | 204 | 0.9 | 0.9 | 0.00 | 0.00 | 0.00 | 93 | 1010.9 |
| 20260506084332 | 76 | 184 | 2.6 | 2.6 | 0.00 | 0.00 | 0.00 | 93 | 1011.0 |
| 20260506083828 | 76 | 187 | 0.0 | 0.0 | 0.00 | 0.00 | 0.00 | 93 | 1010.9 |
| 20260506083326 | 76 | 207 | 1.7 | 2.6 | 0.00 | 0.00 | 0.00 | 93 | 1011.0 |
| 20260506082823 | 76 | 198 | 1.7 | 2.6 | 0.00 | 0.00 | 0.00 | 93 | 1011.0 |
| 20260506082320 | 76 | 195 | 0.9 | 1.7 | 0.00 | 0.00 | 0.00 | 93 | 1011.0 |
| 20260506081816 | 76 | 220 | 0.9 | 0.9 | 0.00 | 0.00 | 0.00 | 93 | 1011.0 |
| 20260506081314 | 76 | 222 | 0.0 | 0.0 | 0.00 | 0.00 | 0.00 | 93 | 1011.0 |
| 20260506080812 | 76 | 187 | 0.9 | 1.7 | 0.00 | 0.00 | 0.00 | 92 | 1010.9 |
| 20260506080308 | 76 | 225 | 0.9 | 1.7 | 0.00 | 0.00 | 0.00 | 92 | 1011.0 |
| 20260506073252 | 76 | 170 | 3.5 | 4.3 | 0.00 | 0.00 | 0.00 | 91 | 1011.3 |
| 20260506072749 | 76 | 215 | 1.7 | 1.7 | 0.00 | 0.00 | 0.00 | 91 | 1011.1 |
| 20260506072246 | 76 | 139 | 5.2 | 7.8 | 0.00 | 0.00 | 0.00 | 91 | 1011.2 |
| 20260506071744 | 76 | 174 | 3.5 | 4.3 | 0.00 | 0.00 | 0.00 | 91 | 1011.3 |
| 20260506071242 | 76 | 143 | 0.9 | 1.7 | 0.00 | 0.00 | 0.00 | 91 | 1011.6 |
| 20260506070738 | 76 | 230 | 2.6 | 4.3 | 0.00 | 0.00 | 0.00 | 91 | 1011.4 |
| 20260506070235 | 76 | 230 | 2.6 | 4.3 | 0.00 | 0.00 | 0.00 | 91 | 1011.1 |
| 20260506062212 | 76 | 215 | 1.7 | 1.7 | 0.00 | 0.00 | 0.00 | 92 | 1011.4 |
| 20260506061708 | 76 | 187 | 2.6 | 2.6 | 0.00 | 0.00 | 0.00 | 92 | 1011.4 |
| 20260506061206 | 76 | 210 | 3.5 | 4.3 | 0.00 | 0.00 | 0.00 | 92 | 1011.4 |
| 20260506060704 | 76 | 203 | 1.7 | 2.6 | 0.00 | 0.00 | 0.00 | 92 | 1011.2 |
| 20260506060201 | 76 | 161 | 7.0 | 7.8 | 0.00 | 0.00 | 0.00 | 92 | 1011.3 |
| 20260506051133 | 76 | 190 | 2.6 | 5.2 | 0.00 | 0.00 | 0.00 | 92 | 1011.2 |
| 20260506050631 | 76 | 177 | 2.6 | 2.6 | 0.00 | 0.00 | 0.00 | 93 | 1011.4 |
| 20260506050128 | 76 | 187 | 1.7 | 2.6 | 0.00 | 0.00 | 0.00 | 92 | 1011.3 |
| 20260506045121 | 76 | 201 | 1.7 | 1.7 | 0.00 | 0.00 | 0.00 | 92 | 1011.4 |
| 20260506044619 | 76 | 185 | 2.6 | 2.6 | 0.00 | 0.00 | 0.00 | 92 | 1011.4 |
| 20260506044116 | 77 | 176 | 3.5 | 5.2 | 0.00 | 0.00 | 0.00 | 92 | 1011.2 |
| 20260506043613 | 77 | 156 | 1.7 | 2.6 | 0.00 | 0.00 | 0.00 | 92 | 1011.2 |
| 20260506043111 | 77 | 199 | 1.7 | 1.7 | 0.00 | 0.00 | 0.00 | 92 | 1011.2 |
| 20260506042610 | 77 | 223 | 0.9 | 0.9 | 0.00 | 0.00 | 0.00 | 92 | 1011.3 |
| 20260506042107 | 77 | 123 | 2.6 | 4.3 | 0.00 | 0.00 | 0.00 | 92 | 1011.3 |
| 20260506041606 | 77 | 144 | 4.3 | 7.0 | 0.00 | 0.00 | 0.00 | 92 | 1011.2 |
| 20260506041102 | 77 | 157 | 0.0 | 0.9 | 0.00 | 0.00 | 0.00 | 91 | 1011.2 |
| 20260506040600 | 77 | 131 | 2.6 | 4.3 | 0.00 | 0.00 | 0.00 | 91 | 1011.1 |
| 20260506040056 | 77 | 189 | 3.5 | 5.2 | 0.00 | 0.00 | 0.00 | 91 | 1011.0 |
| 20260506035553 | 77 | 156 | 3.5 | 5.2 | 0.00 | 0.00 | 0.00 | 91 | 1011.0 |
| 20260506035050 | 77 | 219 | 2.6 | 2.6 | 0.00 | 0.00 | 0.00 | 91 | 1011.2 |
| 20260506034547 | 77 | 207 | 0.9 | 1.7 | 0.00 | 0.00 | 0.00 | 91 | 1010.9 |
| 20260506034044 | 77 | 176 | 2.6 | 2.6 | 0.00 | 0.00 | 0.00 | 90 | 1010.6 |
| 20260506033541 | 77 | 187 | 1.7 | 2.6 | 0.00 | 0.00 | 0.00 | 90 | 1010.8 |
| 20260506033038 | 77 | 175 | 2.6 | 2.6 | 0.00 | 0.00 | 0.00 | 90 | 1010.9 |
| 20260506032536 | 77 | 212 | 0.9 | 0.9 | 0.00 | 0.00 | 0.00 | 89 | 1010.8 |
| 20260506032032 | 78 | 137 | 0.9 | 1.7 | 0.00 | 0.00 | 0.00 | 88 | 1010.7 |
| 20260506031530 | 78 | 210 | 0.9 | 1.7 | 0.00 | 0.00 | 0.00 | 88 | 1010.3 |
| 20260506031027 | 78 | 136 | 0.9 | 0.9 | 0.00 | 0.00 | 0.00 | 88 | 1010.6 |
| 20260506030525 | 78 | 218 | 0.0 | 0.0 | 0.00 | 0.00 | 0.00 | 87 | 1010.4 |
| 20260506030022 | 78 | 195 | 0.9 | 1.7 | 0.00 | 0.00 | 0.00 | 87 | 1010.4 |
| 20260506025519 | 78 | 196 | 0.9 | 0.9 | 0.00 | 0.00 | 0.00 | 87 | 1010.4 |
| 20260506025015 | 78 | 205 | 0.9 | 1.7 | 0.00 | 0.00 | 0.00 | 87 | 1010.2 |
| 20260506024512 | 78 | 203 | 1.7 | 1.7 | 0.00 | 0.00 | 0.00 | 87 | 1010.1 |
| 20260506024008 | 78 | 196 | 0.0 | 0.0 | 0.00 | 0.00 | 0.00 | 86 | 1010.0 |
| 20260506023504 | 78 | 212 | 1.7 | 1.7 | 0.00 | 0.00 | 0.00 | 86 | 1010.2 |
| 20260506023002 | 78 | 168 | 1.7 | 1.7 | 0.00 | 0.00 | 0.00 | 86 | 1010.0 |
| 20260506022459 | 78 | 224 | 0.0 | 0.0 | 0.00 | 0.00 | 0.00 | 86 | 1009.9 |
| 20260506021957 | 79 | 205 | 1.7 | 1.7 | 0.00 | 0.00 | 0.00 | 85 | 1009.6 |
| 20260506021454 | 79 | 208 | 0.9 | 0.9 | 0.00 | 0.00 | 0.00 | 85 | 1009.6 |
| 20260506020951 | 79 | 212 | 0.9 | 0.9 | 0.00 | 0.00 | 0.00 | 85 | 1009.7 |
| 20260506020449 | 79 | 170 | 4.3 | 6.1 | 0.00 | 0.00 | 0.00 | 84 | 1009.4 |
| 20260506015946 | 79 | 219 | 0.9 | 1.7 | 0.00 | 0.00 | 0.00 | 84 | 1009.4 |
| 20260506015443 | 80 | 203 | 1.7 | 2.6 | 0.00 | 0.00 | 0.00 | 83 | 1009.2 |
| 20260506014940 | 80 | 207 | 1.7 | 1.7 | 0.00 | 0.00 | 0.00 | 83 | 1009.1 |
| 20260506014437 | 80 | 158 | 2.6 | 2.6 | 0.00 | 0.00 | 0.00 | 83 | 1009.2 |
| 20260506013933 | 80 | 187 | 0.9 | 1.7 | 0.00 | 0.00 | 0.00 | 82 | 1009.0 |
| 20260506013432 | 80 | 218 | 0.9 | 1.7 | 0.00 | 0.00 | 0.00 | 82 | 1008.8 |
| 20260506012927 | 80 | 192 | 1.7 | 1.7 | 0.00 | 0.00 | 0.00 | 82 | 1009.2 |
| 20260506012424 | 80 | 195 | 0.9 | 1.7 | 0.00 | 0.00 | 0.00 | 82 | 1009.1 |
| 20260506011921 | 81 | 163 | 0.9 | 1.7 | 0.00 | 0.00 | 0.00 | 81 | 1009.2 |
| 20260506011418 | 81 | 189 | 2.6 | 4.3 | 0.00 | 0.00 | 0.00 | 80 | 1009.0 |
| 20260506010915 | 81 | 205 | 0.9 | 1.7 | 0.00 | 0.00 | 0.00 | 80 | 1009.1 |
| 20260506010414 | 81 | 228 | 1.7 | 1.7 | 0.00 | 0.00 | 0.00 | 79 | 1009.1 |
| 20260506005910 | 82 | 209 | 0.9 | 1.7 | 0.00 | 0.00 | 0.00 | 79 | 1009.1 |
| 20260506005408 | 82 | 211 | 1.7 | 1.7 | 0.00 | 0.00 | 0.00 | 79 | 1009.1 |
| 20260506004902 | 82 | 205 | 2.6 | 4.3 | 0.00 | 0.00 | 0.00 | 78 | 1009.2 |
| 20260506004401 | 82 | 176 | 1.7 | 1.7 | 0.00 | 0.00 | 0.00 | 78 | 1009.4 |
| 20260506003857 | 82 | 179 | 1.7 | 2.6 | 0.00 | 0.00 | 0.00 | 78 | 1009.2 |
| 20260506003353 | 82 | 181 | 1.7 | 1.7 | 0.00 | 0.00 | 0.00 | 78 | 1009.0 |
| 20260506002849 | 82 | 160 | 2.6 | 4.3 | 0.00 | 0.00 | 0.00 | 77 | 1009.2 |
| 20260506002346 | 83 | 212 | 0.0 | 0.9 | 0.00 | 0.00 | 0.00 | 77 | 1009.1 |
| 20260506001841 | 83 | 212 | 0.9 | 0.9 | 0.00 | 0.00 | 0.00 | 76 | 1009.1 |
| 20260506001339 | 83 | 220 | 1.7 | 2.6 | 0.00 | 0.00 | 0.00 | 76 | 1009.3 |
| 20260506000836 | 83 | 179 | 0.9 | 0.9 | 0.00 | 0.00 | 0.00 | 76 | 1009.3 |
| 20260506000333 | 83 | 214 | 1.7 | 2.6 | 0.00 | 0.00 | 0.00 | 75 | 1009.1 |
| 20260505235830 | 83 | 223 | 0.9 | 1.7 | 0.00 | 0.00 | 0.00 | 75 | 1009.2 |
| 20260505235327 | 83 | 175 | 1.7 | 1.7 | 0.00 | 0.00 | 0.00 | 74 | 1009.3 |
| 20260505234824 | 83 | 188 | 1.7 | 1.7 | 0.00 | 0.00 | 0.00 | 75 | 1009.0 |
| 20260505234322 | 83 | 148 | 1.7 | 5.2 | 0.00 | 0.00 | 0.00 | 75 | 1009.0 |
| 20260505233819 | 83 | 206 | 0.0 | 0.0 | 0.00 | 0.00 | 0.00 | 75 | 1008.8 |
| 20260505233317 | 84 | 227 | 2.6 | 2.6 | 0.00 | 0.00 | 0.00 | 74 | 1008.8 |
| 20260505232814 | 84 | 154 | 1.7 | 2.6 | 0.00 | 0.00 | 0.00 | 74 | 1008.7 |
| 20260505232311 | 84 | 192 | 3.5 | 4.3 | 0.00 | 0.00 | 0.00 | 75 | 1008.9 |
| 20260505231808 | 84 | 197 | 3.5 | 5.2 | 0.00 | 0.00 | 0.00 | 73 | 1008.8 |
| 20260505231306 | 84 | 201 | 4.3 | 7.0 | 0.00 | 0.00 | 0.00 | 73 | 1008.8 |
| 20260505230804 | 84 | 174 | 1.7 | 1.7 | 0.00 | 0.00 | 0.00 | 72 | 1009.0 |
| 20260505230301 | 84 | 133 | 5.2 | 6.1 | 0.00 | 0.00 | 0.00 | 72 | 1008.9 |
| 20260505225757 | 84 | 165 | 2.6 | 4.3 | 0.00 | 0.00 | 0.00 | 73 | 1008.8 |
| 20260505225254 | 84 | 214 | 1.7 | 4.3 | 0.00 | 0.00 | 0.00 | 72 | 1008.7 |
| 20260505224749 | 84 | 215 | 4.3 | 5.2 | 0.00 | 0.00 | 0.00 | 72 | 1008.8 |
| 20260505224247 | 84 | 179 | 4.3 | 6.1 | 0.00 | 0.00 | 0.00 | 72 | 1008.7 |
| 20260505223745 | 84 | 196 | 2.6 | 2.6 | 0.00 | 0.00 | 0.00 | 72 | 1008.7 |
| 20260505223241 | 85 | 208 | 3.5 | 4.3 | 0.00 | 0.00 | 0.00 | 71 | 1008.6 |
| 20260505222737 | 85 | 208 | 2.6 | 4.3 | 0.00 | 0.00 | 0.00 | 72 | 1008.6 |
| 20260505222233 | 85 | 161 | 1.7 | 2.6 | 0.00 | 0.00 | 0.00 | 72 | 1008.6 |
| 20260505221731 | 85 | 185 | 4.3 | 6.1 | 0.00 | 0.00 | 0.00 | 71 | 1008.7 |
| 20260505221227 | 84 | 202 | 1.7 | 1.7 | 0.00 | 0.00 | 0.00 | 72 | 1008.7 |
| 20260505220724 | 85 | 155 | 3.5 | 4.3 | 0.00 | 0.00 | 0.00 | 72 | 1008.7 |
| 20260505220222 | 86 | 145 | 4.3 | 6.1 | 0.00 | 0.00 | 0.00 | 71 | 1008.9 |
| 20260505215720 | 85 | 206 | 0.9 | 1.7 | 0.00 | 0.00 | 0.00 | 71 | 1008.7 |
| 20260505215217 | 86 | 198 | 7.0 | 9.6 | 0.00 | 0.00 | 0.00 | 70 | 1008.8 |
| 20260505214715 | 86 | 173 | 2.6 | 4.3 | 0.00 | 0.00 | 0.00 | 70 | 1008.7 |
| 20260505214212 | 86 | 164 | 5.2 | 6.1 | 0.00 | 0.00 | 0.00 | 70 | 1009.0 |
| 20260505213709 | 86 | 145 | 2.6 | 4.3 | 0.00 | 0.00 | 0.00 | 70 | 1009.0 |
| 20260505213206 | 86 | 183 | 3.5 | 5.2 | 0.00 | 0.00 | 0.00 | 70 | 1009.0 |
| 20260505212702 | 86 | 203 | 4.3 | 5.2 | 0.00 | 0.00 | 0.00 | 70 | 1009.0 |
| 20260505212200 | 86 | 134 | 6.1 | 7.8 | 0.00 | 0.00 | 0.00 | 71 | 1009.0 |
| 20260505211656 | 87 | 173 | 3.5 | 4.3 | 0.00 | 0.00 | 0.00 | 71 | 1009.5 |
| 20260505211154 | 87 | 174 | 4.3 | 5.2 | 0.00 | 0.00 | 0.00 | 68 | 1009.1 |
| 20260505210650 | 87 | 145 | 3.5 | 6.1 | 0.00 | 0.00 | 0.00 | 67 | 1009.0 |
| 20260505210147 | 87 | 195 | 2.6 | 2.6 | 0.00 | 0.00 | 0.00 | 69 | 1009.1 |
| 20260505205644 | 87 | 184 | 1.7 | 1.7 | 0.00 | 0.00 | 0.00 | 68 | 1009.2 |
| 20260505205143 | 86 | 217 | 0.0 | 0.9 | 0.00 | 0.00 | 0.00 | 69 | 1009.1 |
| 20260505204639 | 87 | 219 | 2.6 | 4.3 | 0.00 | 0.00 | 0.00 | 68 | 1009.5 |
| 20260505204137 | 87 | 201 | 4.3 | 6.1 | 0.00 | 0.00 | 0.00 | 67 | 1009.3 |
| 20260505203634 | 86 | 209 | 4.3 | 6.1 | 0.00 | 0.00 | 0.00 | 68 | 1009.5 |
| 20260505203131 | 86 | 204 | 0.9 | 0.9 | 0.00 | 0.00 | 0.00 | 68 | 1009.5 |
| 20260505202626 | 86 | 227 | 0.9 | 0.9 | 0.00 | 0.00 | 0.00 | 70 | 1010.1 |
| 20260505202122 | 86 | 157 | 5.2 | 6.1 | 0.00 | 0.00 | 0.00 | 69 | 1009.7 |
| 20260505201619 | 86 | 146 | 4.3 | 5.2 | 0.00 | 0.00 | 0.00 | 69 | 1010.0 |
| 20260505201117 | 86 | 224 | 3.5 | 4.3 | 0.00 | 0.00 | 0.00 | 69 | 1010.2 |
| 20260505200615 | 86 | 209 | 4.3 | 6.1 | 0.00 | 0.00 | 0.00 | 70 | 1010.0 |
| 20260505200111 | 86 | 194 | 2.6 | 4.3 | 0.00 | 0.00 | 0.00 | 68 | 1010.1 |
| 20260505195608 | 85 | 189 | 2.6 | 2.6 | 0.00 | 0.00 | 0.00 | 70 | 1010.2 |
| 20260505195106 | 85 | 188 | 0.9 | 2.6 | 0.00 | 0.00 | 0.00 | 70 | 1010.2 |
| 20260505194602 | 86 | 183 | 0.9 | 1.7 | 0.00 | 0.00 | 0.00 | 70 | 1010.3 |
| 20260505194058 | 86 | 188 | 2.6 | 2.6 | 0.00 | 0.00 | 0.00 | 70 | 1010.6 |
| 20260505193555 | 86 | 167 | 1.7 | 1.7 | 0.00 | 0.00 | 0.00 | 70 | 1010.5 |
| 20260505193052 | 86 | 162 | 2.6 | 2.6 | 0.00 | 0.00 | 0.00 | 70 | 1010.4 |
| 20260505192551 | 85 | 171 | 1.7 | 5.2 | 0.00 | 0.00 | 0.00 | 71 | 1010.6 |
| 20260505192048 | 84 | 168 | 3.5 | 5.2 | 0.00 | 0.00 | 0.00 | 74 | 1010.5 |
| 20260505191546 | 84 | 195 | 2.6 | 4.3 | 0.00 | 0.00 | 0.00 | 72 | 1010.8 |
| 20260505191044 | 84 | 135 | 4.3 | 5.2 | 0.00 | 0.00 | 0.00 | 71 | 1010.7 |
| 20260505190538 | 85 | 173 | 1.7 | 1.7 | 0.00 | 0.00 | 0.00 | 71 | 1010.8 |
| 20260505190034 | 86 | 212 | 1.7 | 1.7 | 0.00 | 0.00 | 0.00 | 72 | 1010.8 |
| 20260505185531 | 85 | 286 | 0.9 | 1.7 | 0.00 | 0.00 | 0.00 | 71 | 1010.9 |
| 20260505185027 | 85 | 178 | 2.6 | 4.3 | 0.00 | 0.00 | 0.00 | 74 | 1010.9 |
| 20260505184524 | 84 | 160 | 0.0 | 0.0 | 0.00 | 0.00 | 0.00 | 73 | 1010.9 |
| 20260505184021 | 84 | 156 | 0.9 | 0.9 | 0.00 | 0.00 | 0.00 | 74 | 1011.1 |
| 20260505183518 | 84 | 160 | 1.7 | 2.6 | 0.00 | 0.00 | 0.00 | 76 | 1011.2 |
| 20260505183015 | 83 | 189 | 0.9 | 0.9 | 0.00 | 0.00 | 0.00 | 74 | 1011.2 |
| 20260505182512 | 82 | 236 | 3.5 | 5.2 | 0.00 | 0.00 | 0.00 | 75 | 1011.2 |
| 20260505182008 | 83 | 240 | 1.7 | 2.6 | 0.00 | 0.00 | 0.00 | 74 | 1011.4 |
| 20260505181505 | 82 | 175 | 4.3 | 5.2 | 0.00 | 0.00 | 0.00 | 76 | 1011.4 |
| 20260505181003 | 81 | 175 | 5.2 | 7.0 | 0.00 | 0.00 | 0.00 | 76 | 1011.7 |
| 20260505180458 | 82 | 192 | 3.5 | 4.3 | 0.00 | 0.00 | 0.00 | 76 | 1011.4 |
| 20260505175955 | 82 | 162 | 2.6 | 4.3 | 0.00 | 0.00 | 0.00 | 78 | 1011.5 |
| 20260505175451 | 80 | 187 | 0.9 | 0.9 | 0.00 | 0.00 | 0.00 | 80 | 1011.6 |
| 20260505174948 | 79 | 196 | 2.6 | 2.6 | 0.00 | 0.00 | 0.00 | 81 | 1011.9 |
| 20260505174445 | 79 | 173 | 1.7 | 6.1 | 0.00 | 0.00 | 0.00 | 82 | 1012.0 |
| 20260505173941 | 78 | 188 | 1.7 | 1.7 | 0.00 | 0.00 | 0.00 | 82 | 1011.9 |
| 20260505173438 | 79 | 183 | 3.5 | 5.2 | 0.00 | 0.00 | 0.00 | 81 | 1011.9 |
| 20260505172935 | 78 | 184 | 0.9 | 1.7 | 0.00 | 0.00 | 0.00 | 83 | 1012.0 |
| 20260505172433 | 77 | 181 | 4.3 | 4.3 | 0.00 | 0.00 | 0.00 | 83 | 1011.8 |
| 20260505171932 | 78 | 201 | 0.9 | 0.9 | 0.00 | 0.00 | 0.00 | 83 | 1011.9 |
| 20260505171430 | 77 | 195 | 2.6 | 4.3 | 0.00 | 0.00 | 0.00 | 83 | 1012.0 |
| 20260505170926 | 77 | 212 | 0.9 | 1.7 | 0.00 | 0.00 | 0.00 | 83 | 1012.0 |
| 20260505170423 | 77 | 184 | 1.7 | 1.7 | 0.00 | 0.00 | 0.00 | 84 | 1012.3 |
| 20260505165918 | 77 | 184 | 0.9 | 1.7 | 0.00 | 0.00 | 0.00 | 84 | 1012.2 |
| 20260505165414 | 76 | 199 | 0.0 | 0.0 | 0.00 | 0.00 | 0.00 | 85 | 1012.1 |
| 20260505164909 | 76 | 201 | 0.9 | 0.9 | 0.00 | 0.00 | 0.00 | 85 | 1012.1 |
| 20260505164407 | 76 | 201 | 1.7 | 2.6 | 0.00 | 0.00 | 0.00 | 86 | 1012.2 |
| 20260505163905 | 76 | 143 | 2.6 | 2.6 | 0.00 | 0.00 | 0.00 | 86 | 1012.3 |
| 20260505163404 | 75 | 199 | 0.9 | 0.9 | 0.00 | 0.00 | 0.00 | 87 | 1012.1 |
| 20260505162902 | 75 | 198 | 0.9 | 1.7 | 0.00 | 0.00 | 0.00 | 87 | 1012.1 |
| 20260505162357 | 75 | 209 | 0.0 | 0.9 | 0.00 | 0.00 | 0.00 | 87 | 1012.1 |
| 20260505161855 | 75 | 193 | 3.5 | 6.1 | 0.00 | 0.00 | 0.00 | 87 | 1012.0 |
| 20260505161351 | 75 | 186 | 1.7 | 1.7 | 0.00 | 0.00 | 0.00 | 87 | 1012.1 |
| 20260505160849 | 75 | 195 | 1.7 | 2.6 | 0.00 | 0.00 | 0.00 | 88 | 1012.0 |
| 20260505160347 | 74 | 169 | 0.0 | 0.0 | 0.00 | 0.00 | 0.00 | 89 | 1012.2 |
| 20260505153326 | 73 | 191 | 0.0 | 0.9 | 0.00 | 0.00 | 0.00 | 91 | 1012.2 |
| 20260505152823 | 73 | 191 | 0.9 | 1.7 | 0.00 | 0.00 | 0.00 | 91 | 1012.2 |
| 20260505152320 | 73 | 198 | 0.9 | 0.9 | 0.00 | 0.00 | 0.00 | 91 | 1012.3 |
| 20260505151819 | 73 | 173 | 0.9 | 1.7 | 0.00 | 0.00 | 0.00 | 91 | 1012.1 |
| 20260505151317 | 73 | 198 | 0.9 | 1.7 | 0.00 | 0.00 | 0.00 | 91 | 1012.0 |
| 20260505150813 | 73 | 187 | 1.7 | 2.6 | 0.00 | 0.00 | 0.00 | 91 | 1012.1 |
| 20260505150310 | 72 | 207 | 1.7 | 1.7 | 0.00 | 0.00 | 0.00 | 91 | 1011.9 |
| 20260505140235 | 72 | 205 | 0.9 | 1.7 | 0.00 | 0.00 | 0.00 | 92 | 1011.8 |
| 20260505130159 | 71 | 184 | 0.9 | 1.7 | 0.00 | 0.00 | 0.00 | 92 | 1011.2 |
| 20260505124649 | 71 | 199 | 0.0 | 0.0 | 0.00 | 0.00 | 0.00 | 92 | 1011.0 |
| 20260505124145 | 71 | 183 | 0.9 | 1.7 | 0.00 | 0.00 | 0.00 | 92 | 1011.0 |
| 20260505123641 | 71 | 212 | 0.9 | 0.9 | 0.00 | 0.00 | 0.00 | 92 | 1011.0 |
| 20260505123139 | 71 | 164 | 2.6 | 4.3 | 0.00 | 0.00 | 0.00 | 92 | 1010.8 |
| 20260505122635 | 71 | 144 | 0.9 | 1.7 | 0.00 | 0.00 | 0.00 | 92 | 1010.8 |
| 20260505122132 | 71 | 278 | 1.7 | 2.6 | 0.00 | 0.00 | 0.00 | 92 | 1010.7 |
| 20260505121628 | 71 | 201 | 1.7 | 1.7 | 0.00 | 0.00 | 0.00 | 92 | 1010.5 |
| 20260505121125 | 71 | 196 | 2.6 | 4.3 | 0.00 | 0.00 | 0.00 | 92 | 1010.6 |
| 20260505120622 | 71 | 198 | 2.6 | 2.6 | 0.00 | 0.00 | 0.00 | 92 | 1010.4 |
| 20260505120118 | 71 | 193 | 1.7 | 2.6 | 0.00 | 0.00 | 0.00 | 92 | 1010.3 |
| 20260505115612 | 71 | 208 | 0.0 | 0.0 | 0.00 | 0.00 | 0.00 | 92 | 1010.4 |
| 20260505115109 | 71 | 225 | 1.7 | 1.7 | 0.00 | 0.00 | 0.00 | 92 | 1010.3 |
| 20260505114606 | 71 | 190 | 2.6 | 4.3 | 0.00 | 0.00 | 0.00 | 92 | 1010.5 |
| 20260505114103 | 71 | 199 | 1.7 | 1.7 | 0.00 | 0.00 | 0.00 | 92 | 1010.4 |
| 20260505113559 | 71 | 217 | 0.9 | 0.9 | 0.00 | 0.00 | 0.00 | 93 | 1010.2 |
| 20260505113056 | 71 | 238 | 0.0 | 0.9 | 0.00 | 0.00 | 0.00 | 93 | 1010.5 |
| 20260505112552 | 71 | 176 | 1.7 | 1.7 | 0.00 | 0.00 | 0.00 | 93 | 1010.4 |
| 20260505112050 | 71 | 151 | 2.6 | 2.6 | 0.00 | 0.00 | 0.00 | 93 | 1010.4 |
| 20260505111544 | 71 | 170 | 4.3 | 5.2 | 0.00 | 0.00 | 0.00 | 93 | 1010.4 |
| 20260505111040 | 71 | 211 | 0.9 | 1.7 | 0.00 | 0.00 | 0.00 | 93 | 1010.6 |
| 20260505110537 | 71 | 205 | 1.7 | 2.6 | 0.00 | 0.00 | 0.00 | 93 | 1010.2 |
| 20260505102009 | 71 | 187 | 2.6 | 2.6 | 0.00 | 0.00 | 0.00 | 91 | 1010.8 |
| 20260505101508 | 71 | 202 | 0.0 | 0.9 | 0.00 | 0.00 | 0.00 | 91 | 1010.4 |
| 20260505101004 | 71 | 198 | 2.6 | 4.3 | 0.00 | 0.00 | 0.00 | 91 | 1010.5 |
| 20260505100501 | 71 | 187 | 1.7 | 1.7 | 0.00 | 0.00 | 0.00 | 91 | 1010.8 |
| 20260505095957 | 71 | 204 | 0.0 | 0.9 | 0.00 | 0.00 | 0.00 | 91 | 1010.6 |
| 20260505095454 | 71 | 198 | 1.7 | 1.7 | 0.00 | 0.00 | 0.00 | 91 | 1010.6 |
| 20260505094950 | 71 | 200 | 0.0 | 0.0 | 0.00 | 0.00 | 0.00 | 91 | 1010.7 |
| 20260505094447 | 71 | 211 | 1.7 | 1.7 | 0.00 | 0.00 | 0.00 | 91 | 1010.7 |
| 20260505093943 | 71 | 183 | 0.0 | 0.0 | 0.00 | 0.00 | 0.00 | 91 | 1010.9 |
| 20260505093440 | 71 | 181 | 2.6 | 2.6 | 0.00 | 0.00 | 0.00 | 91 | 1010.5 |
| 20260505092937 | 71 | 180 | 1.7 | 1.7 | 0.00 | 0.00 | 0.00 | 91 | 1010.8 |
| 20260505092435 | 71 | 207 | 3.5 | 4.3 | 0.00 | 0.00 | 0.00 | 91 | 1010.8 |
| 20260505091932 | 71 | 210 | 1.7 | 1.7 | 0.00 | 0.00 | 0.00 | 91 | 1010.9 |
| 20260505091430 | 71 | 178 | 0.9 | 0.9 | 0.00 | 0.00 | 0.00 | 91 | 1011.0 |
| 20260505090927 | 71 | 134 | 2.6 | 4.3 | 0.00 | 0.00 | 0.00 | 91 | 1010.8 |
| 20260505090425 | 71 | 208 | 0.9 | 1.7 | 0.00 | 0.00 | 0.00 | 91 | 1010.6 |
| 20260505085922 | 71 | 210 | 1.7 | 2.6 | 0.00 | 0.00 | 0.00 | 91 | 1011.0 |
| 20260505085420 | 71 | 203 | 3.5 | 4.3 | 0.00 | 0.00 | 0.00 | 91 | 1010.9 |